SCP
0 0 0 0 0 0 0 0 0 -0 0 0 -0 0 0 0 0 0 0 0 0 0 0 0 0 0 0 0 0 0 0 0 0 0 0 0 0 0 0 0 0 0 0 0 0 0 0 0 0 0 0 0 0 0
-0 0 0 0 0 0 0 0 -0 0 0 -0 -0 -0 0 0 0 0 0 0 0 0 0 0 0 0 0 0 0 0 0 0 0 0 0 0 0 0 0 0 0 0 0 0 0 0 0 0 0 0 0 0 0 0
-0 0 0 0 0 0 0 0 0 0 0 -0 0 -0 -0 0 0 0 0 0 0 0 0 0 0 0 0 0 0 0 0 0 0 0 1 0 0 0 0 0 0 0 0 0 0 0 0 0 0 0 0 0 0 0
-0 0 0 0 0 0 0 0 0 0 0 0 0 0 0 0 0 0 0 0 0 0 0 0 0 0 0 0 0 0 0 0 0 0 0 0 0 0 0 0 0 0 0 0 0 0 0 0 0 0 0 0 0 0
0 0 0 0 0 0 -0 0 0 0 0 0 0 0 0 0 0 0 0 0 0 0 0 0 0 0 0 0 0 0 0 0 0 0 0 0 0 0 0 0 0 0 0 0 0 0 0 0 0 0 0 0 0 0
-0 0 0 -0 0 0 0 0 0 0 0 0 0 0 0 0 0 0 0 0 0 0 0 0 0 0 0 0 0 0 0 0 0 0 0 0 0 0 0 0 0 0 0 0 0 0 0 0 0 0 0 0 0 0
-0 0 0 -0 0 0 0 0 0 0 0 0 0 -0 0 0 0 0 0 0 0 0 0 -0 -0 0 0 0 0 0 0 0 0 0 0 0 0 0 0 -0 -0 -0 -0 0 0 0 0 0 0 0 0 0 0 0
-0 -0 -0 -0 0 0 0 0 -0 -0 0 0 -0 0 0 -0 -0 0 0 0 0 -0 -0 -0 0 0 0 0 0 0 0 0 -0 -0 0 0 0 0 0 -0 -0 0 0 0 0 0 0 0 0 0 0 0 0 0
-0 0 -0 -0 -0 -0 0 0 0 0 0 -0 -0 0 0 0 -0 -0 0 -0 -0 0 -0 -0 -0 0 0 0 0 0 0 -0 0 0 0 0 -0 -0 -0 0 0 0 0 0 0 0 0 0 0 0 0 0 0 0
-0 -0 -0 -0 -0 -0 -0 -0 -0 -0 -0 -0 0 0 0 0 0 -0 -0 -0 -0 0 0 0 0 0 0 0 0 0 0 0 -0 0 0 -0 0 -0 -0 0 0 0 0 0 0 0 0 0 0 0 0 0 0 0
-0 -0 -0 -0 -0 -0 -0 -0 -0 -0 -0 -0 -0 -0 0 0 -0 -0 -0 0 0 0 0 0 0 0 0 0 0 0 0 0 -0 -0 -0 0 -0 0 0 0 0 0 0 0 0 0 0 0 0 0 0 0 0 0
-0 -0 -0 -0 -0 -0 -0 -0 -0 -0 0 -0 -0 -0 0 -0 -0 0 0 0 0 0 0 0 0 0 0 0 0 0 0 0 -0 0 -0 0 0 0 0 0 0 0 0 0 0 0 0 0 0 0 0 0 0 0
0 -0 -0 -0 -0 -0 -0 -0 -0 -0 -0 0 0 -0 -0 0 0 0 0 0 0 0 0 0 0 0 0 0 0 0 -0 -0 0 -0 0 0 0 0 0 0 0 0 0 0 0 0 0 0 0 0 0 0 0 0
-0 -0 -0 -0 -0 -0 -0 -0 -0 0 0 -0 -0 -0 0 0 0 0 0 0 0 0 0 0 0 0 0 0 0 0 0 0 -0 0 0 0 0 0 0 0 -0 -0 -0 0 0 0 0 0 0 0 0 0 0 0
-0 -0 -0 -0 0 -0 -0 -0 -0 0 0 -0 0 -0 0 0 0 0 0 0 0 0 0 0 0 0 0 0 0 0 -0 -0 0 -0 -0 0 0 0 0 0 0 0 0 0 0 0 0 0 0 0 0 0 0 0
0 -0 -0 -0 -0 -0 0 0 0 0 0 0 0 0 0 0 0 0 0 0 0 0 0 0 0 0 0 0 0 0 0 0 0 0 0 0 0 0 0 0 0 0 0 0 0 0 0 0 0 0 0 0 0 0
0 0 0 -0 -0 -0 -0 0 0 0 0 0 0 0 0 0 0 0 0 0 0 0 0 0 0 0 0 0 0 0 0 0 0 0 0 0 0 0 0 0 0 0 0 0 0 0 0 0 0 0 0 0 0 0
0 0 0 0 0 0 0 0 0 0 0 0 0 0 0 0 0 0 0 0 0 0 0 0 0 0 0 0 0 0 0 0 0 0 0 0 0 0 0 0 0 0 0 0 0 0 0 0 0 0 0 -0 0 0
0 0 0 0 0 0 0 0 0 0 0 0 0 0 0 0 0 0 0 0 0 0 0 0 0 0 0 0 0 0 0 0 0 0 0 0 0 0 0 0 0 0 0 0 -0 -0 0 -0 0 0 0 0 0 0
0 0 0 0 0 0 0 0 0 0 0 0 0 0 0 0 0 0 0 0 0 0 0 0 0 0 0 0 0 0 0 0 0 0 0 0 0 0 0 0 0 0 0 -0 0 0 0 0 0 0 0 0 0 0
0 0 0 0 0 0 0 0 0 0 0 0 0 0 0 0 0 0 0 0 0 0 0 0 0 0 0 0 0 0 0 0 0 0 0 0 0 0 0 0 0 0 0 0 0 0 0 0 0 0 0 0 0 0
0 0 0 0 0 0 0 0 0 0 0 0 0 0 0 0 0 0 0 0 0 0 0 0 -0 0 0 0 0 0 0 0 0 0 0 0 0 0 0 0 0 0 0 0 0 0 0 0 0 0 0 0 0 0
0 0 0 0 0 0 0 0 0 0 0 0 0 0 0 0 0 0 0 0 0 0 0 0 0 0 0 0 0 0 0 0 0 0 0 0 0 0 0 0 0 0 0 0 0 0 0 0 0 0 0 0 0 0
0 0 0 0 0 0 0 0 0 0 0 0 0 0 0 0 0 0 0 0 0 0 0 0 0 0 0 0 0 0 0 0 0 0 0 0 0 0 0 0 0 0 0 0 0 0 0 0 0 0 0 0 0 0
0 0 0 0 0 0 0 0 0 0 0 0 0 0 0 0 0 0 0 0 0 0 0 0 0 0 0 0 0 0 0 0 0 0 0 0 0 0 0 0 0 0 0 0 0 0 0 0 0 0 0 0 0 0
0 0 0 0 0 0 0 0 0 0 0 0 0 0 0 0 0 0 0 0 0 0 0 0 0 0 0 0 0 0 0 0 0 0 0 0 0 0 0 0 0 0 0 0 0 0 0 0 0 0 0 0 0 0
0 0 0 0 0 0 0 0 0 0 0 0 0 0 0 0 0 0 0 0 0 0 0 0 0 0 0 0 0 0 0 0 0 0 0 0 0 0 0 0 0 0 0 0 0 0 0 0 0 0 0 0 0 0
0 0 0 0 0 0 0 0 0 0 0 0 0 0 0 0 0 0 0 0 0 -0 -0 0 0 0 0 0 0 0 0 0 0 0 0 0 0 0 0 0 0 0 0 0 0 0 0 0 0 0 0 0 0 0
0 0 0 0 0 0 0 0 0 0 0 0 0 0 0 0 0 0 0 0 0 0 -0 -0 0 0 0 0 0 0 0 0 0 0 0 0 0 0 0 0 0 0 0 0 0 0 0 0 0 0 0 0 0 0
0 0 0 0 0 0 0 0 0 0 0 0 0 0 0 0 0 0 0 0 0 0 0 0 0 0 0 0 0 0 0 0 0 0 0 0 0 0 0 0 0 0 0 0 0 0 0 0 0 0 0 0 0 0
0 0 0 0 0 0 0 0 0 0 0 0 0 0 0 0 0 0 0 0 0 0 0 0 0 0 0 0 0 0 0 0 0 0 0 0 0 0 0 0 0 0 0 0 0 0 0 0 0 0 0 0 0 0
0 0 0 0 0 0 0 0 0 0 0 0 0 0 0 0 0 0 0 0 0 0 0 0 0 0 0 0 0 0 0 0 0 0 0 0 0 0 0 0 0 0 0 0 0 0 0 0 0 0 0 0 0 0
0 0 0 0 0 0 0 0 0 0 0 0 0 0 0 0 0 0 0 0 0 0 0 0 0 0 0 0 0 0 0 0 0 0 0 0 0 0 0 0 0 0 0 0 0 0 0 0 0 0 0 0 0 0
Wind_Speed_500mb
36 32 28 25 18 4 12 33 40 40 38 38 38 35 33 30 28 32 23 12 13 7 15 21 16 37 26 31 12 19 12 3 7 11 10 8 11 14 11 21 20 23 17 18 16 22 50 14 5 44 45 76 58 49
26 28 26 25 23 20 16 11 26 57 43 38 41 37 36 36 35 26 20 19 9 8 11 20 30 29 27 23 17 36 3 17 18 7 7 6 9 6 11 15 17 14 22 24 23 17 39 41 39 46 53 63 60 42
17 16 21 27 25 34 34 35 39 41 44 39 48 34 42 46 42 37 34 17 1 12 15 17 14 24 24 24 25 13 9 14 15 8 10 5 14 11 16 19 17 14 21 17 31 39 54 82 72 69 69 63 60 60
13 14 9 18 23 31 43 52 55 45 43 46 44 44 47 33 32 32 36 16 4 9 6 4 13 17 20 27 31 25 14 21 12 16 6 7 9 15 16 18 17 21 15 18 24 45 37 76 68 68 61 64 60 53
13 13 13 10 21 23 34 44 46 44 44 47 40 33 30 30 30 27 26 16 8 3 4 2 8 22 25 28 26 27 27 21 13 10 8 9 13 7 8 4 17 25 23 15 25 33 29 50 39 39 41 51 50 47
15 18 22 21 19 26 31 37 40 41 45 48 40 36 29 22 18 17 6 12 18 9 4 2 5 14 26 27 31 31 29 18 15 11 10 16 25 15 10 23 46 59 62 65 60 62 50 52 49 43 35 37 37 38
15 31 36 36 33 31 32 33 35 36 34 33 32 26 21 15 13 2 4 8 25 21 4 3 5 5 15 17 18 26 27 19 21 11 12 16 14 18 13 36 53 57 54 59 64 56 41 58 31 33 30 31 29 29
28 40 49 45 47 42 36 34 32 30 30 27 24 21 17 10 7 9 8 14 5 14 9 4 3 5 21 12 11 21 16 22 16 13 7 8 5 12 17 34 46 53 58 63 67 57 53 39 31 30 28 25 28 31
38 31 52 52 54 49 42 41 36 34 31 27 19 15 10 4 3 5 9 12 9 13 6 6 6 5 18 10 9 14 15 8 11 6 7 9 8 17 27 31 49 57 60 59 46 48 44 41 35 33 32 34 35 38
48 37 47 52 50 44 40 38 36 34 29 27 23 8 6 8 12 5 1 2 7 11 9 5 6 6 11 12 12 10 9 5 5 5 9 9 18 69 65 58 52 46 46 47 38 25 37 42 42 42 43 41 39 42
34 40 39 35 37 37 35 37 39 35 31 26 11 8 9 11 12 6 5 5 4 5 8 5 9 5 10 6 6 10 4 4 6 6 7 8 10 14 38 49 48 39 35 39 39 29 24 31 41 45 47 45 43 43
26 31 33 31 31 36 37 39 40 39 18 14 6 8 10 8 6 6 4 3 7 4 8 7 8 10 5 8 5 5 4 4 9 4 5 8 9 18 20 23 26 31 36 36 32 24 18 26 29 40 45 46 42 41
20 23 28 26 29 35 33 34 34 30 17 12 8 6 7 6 8 11 13 8 6 14 16 12 6 8 6 7 6 6 8 7 3 4 8 12 2 12 16 17 23 30 33 32 29 25 21 27 31 41 46 44 41 43
10 27 26 30 36 33 32 37 39 38 23 12 9 9 9 9 11 6 2 5 5 8 18 12 10 5 6 7 2 7 3 2 6 7 14 5 9 11 18 21 27 31 30 29 27 25 27 33 41 45 44 44 46 47
10 18 32 35 36 40 44 41 38 41 17 8 9 10 13 2 2 1 6 8 7 22 21 8 6 5 5 5 5 3 6 10 11 11 5 3 9 13 20 28 34 34 33 29 28 29 33 41 46 48 46 43 43 44
5 16 22 32 43 39 36 34 28 35 9 10 11 4 5 3 6 9 15 11 21 26 16 6 5 5 11 6 8 16 7 13 7 6 9 12 18 19 24 30 34 33 30 29 34 35 40 43 43 43 46 47 48 47
6 9 14 20 35 43 35 28 15 13 12 10 9 21 17 11 4 10 17 18 35 27 7 6 11 11 5 6 9 10 11 5 7 12 18 21 19 19 28 37 41 44 39 35 37 38 41 43 45 45 47 47 47 46
9 10 14 18 28 32 33 25 11 15 16 22 10 15 19 18 11 13 22 33 30 21 15 8 4 9 11 10 8 8 25 26 22 22 22 19 17 23 33 41 43 43 41 37 38 40 43 45 45 44 43 44 46 49
14 18 19 24 30 23 13 18 20 12 21 13 16 20 16 12 26 19 30 48 32 22 10 9 8 9 11 11 10 16 21 23 16 18 22 22 24 30 37 43 46 45 48 45 44 44 42 40 40 44 47 51 53 52
15 16 20 31 36 16 11 12 17 13 8 10 16 13 11 9 15 26 33 46 34 12 9 10 14 15 22 38 35 35 27 24 25 25 29 33 35 40 45 48 51 49 50 49 46 46 47 50 54 53 54 54 55 54
24 16 21 30 40 31 11 12 14 10 8 9 11 15 7 10 10 18 22 39 20 16 10 45 60 78 67 52 40 35 37 36 39 40 35 38 47 47 48 51 53 53 54 55 56 57 60 60 55 57 57 56 53 51
23 17 12 24 23 17 18 21 10 10 9 7 15 15 8 8 14 17 26 23 21 33 48 68 93 96 90 82 76 68 56 48 45 44 45 42 47 55 58 60 60 61 60 60 59 57 55 55 55 56 57 54 53 53
33 24 15 22 20 16 9 16 12 11 6 9 11 6 7 8 13 25 13 25 34 63 85 97 103 99 90 85 76 74 72 68 62 56 54 50 46 50 54 56 57 59 59 57 54 54 54 51 53 54 55 57 59 60
29 13 14 19 32 7 14 14 10 8 6 6 8 8 7 8 18 8 10 13 46 65 69 80 88 92 89 91 95 94 82 75 70 64 64 62 59 55 53 53 54 57 57 54 53 54 56 57 56 59 62 64 65 66
12 17 16 12 15 11 13 12 10 8 10 11 11 8 7 15 7 9 9 11 39 73 83 80 81 82 88 89 85 82 73 71 77 76 70 69 64 60 59 59 59 60 61 62 63 59 60 61 62 64 66 68 69 68
11 21 27 14 12 14 20 16 19 21 10 13 14 8 10 6 6 15 8 22 52 60 64 64 67 74 85 91 89 82 71 68 75 76 75 73 72 69 66 63 63 65 65 63 62 63 63 62 64 66 69 68 67 67
14 17 23 18 12 8 3 3 5 5 14 17 11 13 9 11 15 11 22 33 32 37 40 40 42 53 63 68 71 79 67 55 68 73 72 66 64 64 66 66 64 60 51 51 59 62 62 62 63 63 64 65 66 64
29 18 14 19 15 15 7 7 11 16 11 17 21 15 19 20 14 12 13 14 17 35 47 43 38 40 43 50 54 47 51 60 52 66 63 57 59 63 62 60 59 55 49 47 47 48 53 56 58 59 60 61 59 57
13 15 20 8 6 10 13 16 13 19 20 30 11 9 11 18 19 19 23 23 29 27 54 56 46 40 38 37 37 36 40 53 59 62 69 69 64 64 62 59 58 58 58 57 54 52 48 48 50 52 53 54 54 56
11 25 10 8 11 14 10 25 9 9 18 24 13 13 16 25 26 28 32 36 34 26 35 39 38 37 32 29 30 34 38 42 51 58 62 62 61 55 51 49 53 55 58 59 58 56 54 54 55 57 57 57 58 58
9 18 6 10 9 11 17 22 26 27 20 15 27 26 29 24 38 37 28 30 31 36 25 30 33 30 32 31 30 33 38 39 43 48 52 54 52 45 38 36 38 43 49 54 55 55 56 56 57 57 56 56 56 55
10 13 5 6 6 9 13 7 6 6 6 6 7 9 9 9 9 9 27 30 31 26 22 26 33 37 40 38 35 34 33 36 36 32 35 45 50 53 50 42 36 36 42 47 52 54 55 55 55 55 54 53 53 53
5 8 8 7 6 5 5 5 6 4 5 3 1 4 4 6 7 20 41 41 51 39 32 29 24 27 29 34 39 41 39 39 40 41 42 42 44 45 49 51 46 41 39 41 45 46 48 48 49 48 48 48 47 47
Wind_Direction_500mb
70 72 76 79 86 135 189 198 191 188 187 183 184 183 182 180 175 199 188 172 148 125 166 166 150 156 171 176 155 153 114 81 153 187 183 180 229 206 250 230 201 188 190 214 229 243 261 183 248 218 243 262 270 272
70 74 70 63 52 33 358 264 192 198 183 176 177 177 174 179 182 189 185 149 183 129 141 192 205 185 164 177 141 168 150 150 172 180 195 201 207 191 226 242 212 231 214 221 208 229 255 269 258 251 246 257 267 262
63 73 72 58 47 45 53 99 139 168 187 168 167 169 172 175 175 174 162 149 115 124 126 161 175 193 211 210 203 159 202 172 190 195 186 223 235 190 220 228 252 229 246 237 251 259 257 265 262 267 263 256 259 260
99 80 82 81 65 55 90 107 105 117 134 147 160 164 163 165 182 187 197 198 261 85 111 184 213 189 195 204 212 208 197 194 171 196 187 204 234 206 246 254 240 238 153 228 250 256 275 270 268 270 262 258 254 254
157 147 123 115 102 89 86 112 119 119 128 137 141 150 162 156 155 167 184 179 183 102 85 347 248 213 208 206 204 210 212 200 178 168 208 229 247 250 235 310 247 208 223 213 245 262 245 276 284 281 264 261 256 252
203 202 170 155 145 128 118 117 118 120 122 131 138 132 132 135 147 148 132 214 211 194 37 304 247 223 211 214 218 218 213 206 202 200 224 237 234 202 246 246 254 243 240 235 248 265 260 270 278 276 264 257 252 249
234 216 200 176 166 152 143 132 130 129 130 131 136 141 145 148 149 161 176 196 190 202 212 252 237 231 205 214 218 211 214 212 209 224 227 241 231 201 250 254 254 258 256 248 249 256 262 259 258 264 260 258 250 229
303 226 203 183 169 164 155 149 138 136 136 137 143 151 145 158 194 210 183 155 218 193 193 242 152 200 187 188 196 197 197 206 220 230 217 217 218 225 250 248 259 254 248 251 249 247 247 260 258 250 245 229 207 196
46 143 168 171 169 167 161 153 147 151 153 156 152 155 159 179 222 228 226 242 243 198 215 206 211 197 180 189 170 180 187 203 203 231 197 185 202 229 246 257 251 243 240 255 244 239 242 242 239 231 213 196 194 185
66 104 145 158 166 167 164 162 164 171 171 160 162 169 200 206 212 212 77 154 182 213 223 238 185 166 173 174 185 176 188 237 228 173 144 226 248 253 257 263 258 251 242 238 215 219 223 224 218 210 202 197 194 190
95 117 135 147 162 165 164 171 179 174 174 171 180 207 212 200 184 205 207 216 181 232 211 191 196 168 191 193 197 209 172 189 245 143 224 237 263 241 248 250 250 241 233 220 222 240 246 238 222 205 197 193 193 192
125 140 151 155 159 169 168 181 190 184 175 182 211 170 162 187 199 222 187 158 217 250 176 178 176 194 185 185 237 187 224 158 249 130 235 250 237 218 236 244 235 219 211 208 212 218 215 205 205 201 193 189 189 190
159 162 173 167 175 178 180 188 192 191 193 187 234 204 175 179 213 218 201 199 225 174 179 172 166 168 179 187 234 198 217 226 108 219 238 239 222 248 243 228 208 198 197 201 205 208 214 200 189 188 188 188 187 187
185 182 177 182 184 195 197 199 199 204 197 225 204 224 211 194 237 213 313 59 125 132 148 134 123 169 170 186 193 234 106 235 235 236 237 233 247 254 228 211 199 193 192 191 195 203 197 188 179 180 186 191 191 189
193 198 195 192 196 197 200 203 203 209 201 230 194 232 212 308 235 218 143 131 141 151 140 124 116 184 174 219 212 121 195 237 226 234 235 224 260 259 219 203 193 191 189 186 186 179 179 177 180 182 185 190 190 191
199 195 207 208 205 208 213 217 219 220 217 234 227 226 210 220 190 213 201 194 170 160 147 127 144 199 221 208 186 216 218 223 233 221 257 269 265 246 218 201 192 186 184 184 178 176 177 180 184 188 190 189 191 191
257 221 210 211 207 208 215 212 215 209 228 224 234 225 215 253 245 187 186 187 176 158 184 171 198 207 96 212 235 208 215 236 223 246 261 260 254 229 200 188 186 186 188 187 186 184 184 186 189 192 195 194 192 193
250 236 224 207 196 191 189 192 226 224 236 222 211 212 209 214 199 202 196 177 163 186 164 207 146 199 213 214 222 220 229 242 254 261 267 257 237 206 194 191 190 191 193 191 191 192 193 194 196 198 197 199 200 199
267 233 221 204 189 181 206 214 221 245 226 214 226 220 211 222 219 212 191 185 182 181 176 166 220 218 223 220 232 228 220 222 240 251 240 232 220 203 193 192 196 198 198 199 200 202 203 204 205 204 204 205 207 207
284 249 221 206 194 200 235 225 207 242 234 214 213 192 196 210 202 199 191 185 184 188 209 214 220 219 212 230 241 246 246 241 244 243 242 228 214 205 200 199 200 200 201 204 206 207 207 207 208 208 210 211 212 213
294 282 235 208 206 220 263 231 224 228 214 196 200 177 208 183 194 186 189 184 191 218 233 229 236 240 242 248 253 252 251 253 260 256 252 233 219 211 207 205 206 207 209 210 212 212 212 214 213 213 214 215 216 218
270 278 275 213 211 222 242 223 223 187 188 191 171 195 201 199 193 192 179 192 230 229 223 233 240 246 250 250 253 256 261 260 257 248 239 235 218 212 213 214 212 214 216 219 220 221 222 220 217 217 219 220 222 224
263 256 228 207 205 218 232 205 190 205 207 184 169 207 221 207 188 164 232 225 242 244 242 245 249 251 254 258 256 255 253 250 247 242 233 229 227 227 227 226 224 225 227 228 227 227 227 225 224 223 223 224 225 228
239 220 220 211 205 176 174 184 194 170 166 203 201 227 195 160 161 201 254 249 247 253 250 250 248 247 249 250 252 253 249 244 239 235 229 224 224 226 228 229 229 231 232 234 232 231 229 228 226 224 224 226 229 232
193 226 203 213 192 141 192 169 183 188 238 176 203 226 178 163 187 227 239 262 257 259 257 254 248 243 243 251 256 252 244 233 231 231 228 226 228 227 227 228 228 229 229 230 229 228 228 229 228 228 229 230 233 236
207 211 189 206 175 185 189 174 194 200 170 180 218 121 150 179 222 246 224 246 257 267 270 264 255 248 246 246 246 248 241 230 226 227 232 229 229 230 233 232 233 233 232 232 231 231 231 231 231 232 235 236 238 241
221 240 210 208 177 164 173 173 155 186 185 202 164 162 160 204 231 245 252 258 273 278 281 282 275 265 263 261 255 247 243 236 228 230 234 231 234 237 240 241 242 246 241 239 237 237 237 236 236 237 240 242 243 245
210 193 195 176 190 202 200 184 190 209 208 159 135 185 189 203 223 228 236 286 311 327 315 298 284 274 265 257 256 252 240 228 225 224 229 233 234 236 238 239 240 239 238 238 237 237 237 239 240 242 244 247 250 250
201 185 166 167 179 209 222 209 218 217 182 170 190 214 226 230 253 262 274 293 304 310 297 301 290 283 271 256 244 233 227 220 215 214 220 229 232 236 236 236 235 235 233 233 235 238 238 239 240 243 247 249 251 251
192 178 172 162 187 220 221 207 239 257 222 220 248 279 270 265 281 296 300 294 294 301 294 293 289 286 279 260 241 229 224 222 222 228 234 238 243 251 248 244 242 242 240 237 236 237 238 238 239 239 240 242 244 247
164 176 198 207 236 243 250 266 269 267 262 252 245 251 261 289 288 294 297 297 293 279 281 298 293 280 277 270 256 247 246 245 244 242 242 244 248 253 255 251 242 239 238 237 237 236 237 239 240 243 244 246 248 250
195 201 201 235 249 269 284 237 243 248 246 247 258 245 283 277 273 324 355 350 349 326 303 289 296 287 269 260 258 255 255 258 262 259 251 252 252 254 253 250 245 238 231 228 228 231 234 238 242 246 251 253 255 256
216 206 226 273 274 254 231 225 227 260 231 254 348 343 324 312 296 355 350 349 346 339 331 315 303 298 277 258 256 252 257 262 263 260 257 254 252 248 245 243 239 234 229 226 226 229 233 238 245 250 253 257 257 258
Wind_Speed_850mb
36 32 28 25 18 4 12 33 40 40 38 38 38 35 33 30 28 32 23 12 13 7 15 21 16 37 26 31 12 19 12 3 7 11 10 8 11 14 11 21 20 23 17 18 16 22 50 14 5 44 45 76 58 49
26 28 26 25 23 20 16 11 26 57 43 38 41 37 36 36 35 26 20 19 9 8 11 20 30 29 27 23 17 36 3 17 18 7 7 6 9 6 11 15 17 14 22 24 23 17 39 41 39 46 53 63 60 42
17 16 21 27 25 34 34 35 39 41 44 39 48 34 42 46 42 37 34 17 1 12 15 17 14 24 24 24 25 13 9 14 15 8 10 5 14 11 16 19 17 14 21 17 31 39 54 82 72 69 69 63 60 60
13 14 9 18 23 31 43 52 55 45 43 46 44 44 47 33 32 32 36 16 4 9 6 4 13 17 20 27 31 25 14 21 12 16 6 7 9 15 16 18 17 21 15 18 24 45 37 76 68 68 61 64 60 53
13 13 13 10 21 23 34 44 46 44 44 47 40 33 30 30 30 27 26 16 8 3 4 2 8 22 25 28 26 27 27 21 13 10 8 9 13 7 8 4 17 25 23 15 25 33 29 50 39 39 41 51 50 47
15 18 22 21 19 26 31 37 40 41 45 48 40 36 29 22 18 17 6 12 18 9 4 2 5 14 26 27 31 31 29 18 15 11 10 16 25 15 10 23 46 59 62 65 60 62 50 52 49 43 35 37 37 38
15 31 36 36 33 31 32 33 35 36 34 33 32 26 21 15 13 2 4 8 25 21 4 3 5 5 15 17 18 26 27 19 21 11 12 16 14 18 13 36 53 57 54 59 64 56 41 58 31 33 30 31 29 29
28 40 49 45 47 42 36 34 32 30 30 27 24 21 17 10 7 9 8 14 5 14 9 4 3 5 21 12 11 21 16 22 16 13 7 8 5 12 17 34 46 53 58 63 67 57 53 39 31 30 28 25 28 31
38 31 52 52 54 49 42 41 36 34 31 27 19 15 10 4 3 5 9 12 9 13 6 6 6 5 18 10 9 14 15 8 11 6 7 9 8 17 27 31 49 57 60 59 46 48 44 41 35 33 32 34 35 38
48 37 47 52 50 44 40 38 36 34 29 27 23 8 6 8 12 5 1 2 7 11 9 5 6 6 11 12 12 10 9 5 5 5 9 9 18 69 65 58 52 46 46 47 38 25 37 42 42 42 43 41 39 42
34 40 39 35 37 37 35 37 39 35 31 26 11 8 9 11 12 6 5 5 4 5 8 5 9 5 10 6 6 10 4 4 6 6 7 8 10 14 38 49 48 39 35 39 39 29 24 31 41 45 47 45 43 43
26 31 33 31 31 36 37 39 40 39 18 14 6 8 10 8 6 6 4 3 7 4 8 7 8 10 5 8 5 5 4 4 9 4 5 8 9 18 20 23 26 31 36 36 32 24 18 26 29 40 45 46 42 41
20 23 28 26 29 35 33 34 34 30 17 12 8 6 7 6 8 11 13 8 6 14 16 12 6 8 6 7 6 6 8 7 3 4 8 12 2 12 16 17 23 30 33 32 29 25 21 27 31 41 46 44 41 43
10 27 26 30 36 33 32 37 39 38 23 12 9 9 9 9 11 6 2 5 5 8 18 12 10 5 6 7 2 7 3 2 6 7 14 5 9 11 18 21 27 31 30 29 27 25 27 33 41 45 44 44 46 47
10 18 32 35 36 40 44 41 38 41 17 8 9 10 13 2 2 1 6 8 7 22 21 8 6 5 5 5 5 3 6 10 11 11 5 3 9 13 20 28 34 34 33 29 28 29 33 41 46 48 46 43 43 44
5 16 22 32 43 39 36 34 28 35 9 10 11 4 5 3 6 9 15 11 21 26 16 6 5 5 11 6 8 16 7 13 7 6 9 12 18 19 24 30 34 33 30 29 34 35 40 43 43 43 46 47 48 47
6 9 14 20 35 43 35 28 15 13 12 10 9 21 17 11 4 10 17 18 35 27 7 6 11 11 5 6 9 10 11 5 7 12 18 21 19 19 28 37 41 44 39 35 37 38 41 43 45 45 47 47 47 46
9 10 14 18 28 32 33 25 11 15 16 22 10 15 19 18 11 13 22 33 30 21 15 8 4 9 11 10 8 8 25 26 22 22 22 19 17 23 33 41 43 43 41 37 38 40 43 45 45 44 43 44 46 49
14 18 19 24 30 23 13 18 20 12 21 13 16 20 16 12 26 19 30 48 32 22 10 9 8 9 11 11 10 16 21 23 16 18 22 22 24 30 37 43 46 45 48 45 44 44 42 40 40 44 47 51 53 52
15 16 20 31 36 16 11 12 17 13 8 10 16 13 11 9 15 26 33 46 34 12 9 10 14 15 22 38 35 35 27 24 25 25 29 33 35 40 45 48 51 49 50 49 46 46 47 50 54 53 54 54 55 54
24 16 21 30 40 31 11 12 14 10 8 9 11 15 7 10 10 18 22 39 20 16 10 45 60 78 67 52 40 35 37 36 39 40 35 38 47 47 48 51 53 53 54 55 56 57 60 60 55 57 57 56 53 51
23 17 12 24 23 17 18 21 10 10 9 7 15 15 8 8 14 17 26 23 21 33 48 68 93 96 90 82 76 68 56 48 45 44 45 42 47 55 58 60 60 61 60 60 59 57 55 55 55 56 57 54 53 53
33 24 15 22 20 16 9 16 12 11 6 9 11 6 7 8 13 25 13 25 34 63 85 97 103 99 90 85 76 74 72 68 62 56 54 50 46 50 54 56 57 59 59 57 54 54 54 51 53 54 55 57 59 60
29 13 14 19 32 7 14 14 10 8 6 6 8 8 7 8 18 8 10 13 46 65 69 80 88 92 89 91 95 94 82 75 70 64 64 62 59 55 53 53 54 57 57 54 53 54 56 57 56 59 62 64 65 66
12 17 16 12 15 11 13 12 10 8 10 11 11 8 7 15 7 9 9 11 39 73 83 80 81 82 88 89 85 82 73 71 77 76 70 69 64 60 59 59 59 60 61 62 63 59 60 61 62 64 66 68 69 68
11 21 27 14 12 14 20 16 19 21 10 13 14 8 10 6 6 15 8 22 52 60 64 64 67 74 85 91 89 82 71 68 75 76 75 73 72 69 66 63 63 65 65 63 62 63 63 62 64 66 69 68 67 67
14 17 23 18 12 8 3 3 5 5 14 17 11 13 9 11 15 11 22 33 32 37 40 40 42 53 63 68 71 79 67 55 68 73 72 66 64 64 66 66 64 60 51 51 59 62 62 62 63 63 64 65 66 64
29 18 14 19 15 15 7 7 11 16 11 17 21 15 19 20 14 12 13 14 17 35 47 43 38 40 43 50 54 47 51 60 52 66 63 57 59 63 62 60 59 55 49 47 47 48 53 56 58 59 60 61 59 57
13 15 20 8 6 10 13 16 13 19 20 30 11 9 11 18 19 19 23 23 29 27 54 56 46 40 38 37 37 36 40 53 59 62 69 69 64 64 62 59 58 58 58 57 54 52 48 48 50 52 53 54 54 56
11 25 10 8 11 14 10 25 9 9 18 24 13 13 16 25 26 28 32 36 34 26 35 39 38 37 32 29 30 34 38 42 51 58 62 62 61 55 51 49 53 55 58 59 58 56 54 54 55 57 57 57 58 58
9 18 6 10 9 11 17 22 26 27 20 15 27 26 29 24 38 37 28 30 31 36 25 30 33 30 32 31 30 33 38 39 43 48 52 54 52 45 38 36 38 43 49 54 55 55 56 56 57 57 56 56 56 55
10 13 5 6 6 9 13 7 6 6 6 6 7 9 9 9 9 9 27 30 31 26 22 26 33 37 40 38 35 34 33 36 36 32 35 45 50 53 50 42 36 36 42 47 52 54 55 55 55 55 54 53 53 53
5 8 8 7 6 5 5 5 6 4 5 3 1 4 4 6 7 20 41 41 51 39 32 29 24 27 29 34 39 41 39 39 40 41 42 42 44 45 49 51 46 41 39 41 45 46 48 48 49 48 48 48 47 47
Wind_Direction_850mb
70 72 76 79 86 135 189 198 191 188 187 183 184 183 182 180 175 199 188 172 148 125 166 166 150 156 171 176 155 153 114 81 153 187 183 180 229 206 250 230 201 188 190 214 229 243 261 183 248 218 243 262 270 272
70 74 70 63 52 33 358 264 192 198 183 176 177 177 174 179 182 189 185 149 183 129 141 192 205 185 164 177 141 168 150 150 172 180 195 201 207 191 226 242 212 231 214 221 208 229 255 269 258 251 246 257 267 262
63 73 72 58 47 45 53 99 139 168 187 168 167 169 172 175 175 174 162 149 115 124 126 161 175 193 211 210 203 159 202 172 190 195 186 223 235 190 220 228 252 229 246 237 251 259 257 265 262 267 263 256 259 260
99 80 82 81 65 55 90 107 105 117 134 147 160 164 163 165 182 187 197 198 261 85 111 184 213 189 195 204 212 208 197 194 171 196 187 204 234 206 246 254 240 238 153 228 250 256 275 270 268 270 262 258 254 254
157 147 123 115 102 89 86 112 119 119 128 137 141 150 162 156 155 167 184 179 183 102 85 347 248 213 208 206 204 210 212 200 178 168 208 229 247 250 235 310 247 208 223 213 245 262 245 276 284 281 264 261 256 252
203 202 170 155 145 128 118 117 118 120 122 131 138 132 132 135 147 148 132 214 211 194 37 304 247 223 211 214 218 218 213 206 202 200 224 237 234 202 246 246 254 243 240 235 248 265 260 270 278 276 264 257 252 249
234 216 200 176 166 152 143 132 130 129 130 131 136 141 145 148 149 161 176 196 190 202 212 252 237 231 205 214 218 211 214 212 209 224 227 241 231 201 250 254 254 258 256 248 249 256 262 259 258 264 260 258 250 229
303 226 203 183 169 164 155 149 138 136 136 137 143 151 145 158 194 210 183 155 218 193 193 242 152 200 187 188 196 197 197 206 220 230 217 217 218 225 250 248 259 254 248 251 249 247 247 260 258 250 245 229 207 196
46 143 168 171 169 167 161 153 147 151 153 156 152 155 159 179 222 228 226 242 243 198 215 206 211 197 180 189 170 180 187 203 203 231 197 185 202 229 246 257 251 243 240 255 244 239 242 242 239 231 213 196 194 185
66 104 145 158 166 167 164 162 164 171 171 160 162 169 200 206 212 212 77 154 182 213 223 238 185 166 173 174 185 176 188 237 228 173 144 226 248 253 257 263 258 251 242 238 215 219 223 224 218 210 202 197 194 190
95 117 135 147 162 165 164 171 179 174 174 171 180 207 212 200 184 205 207 216 181 232 211 191 196 168 191 193 197 209 172 189 245 143 224 237 263 241 248 250 250 241 233 220 222 240 246 238 222 205 197 193 193 192
125 140 151 155 159 169 168 181 190 184 175 182 211 170 162 187 199 222 187 158 217 250 176 178 176 194 185 185 237 187 224 158 249 130 235 250 237 218 236 244 235 219 211 208 212 218 215 205 205 201 193 189 189 190
159 162 173 167 175 178 180 188 192 191 193 187 234 204 175 179 213 218 201 199 225 174 179 172 166 168 179 187 234 198 217 226 108 219 238 239 222 248 243 228 208 198 197 201 205 208 214 200 189 188 188 188 187 187
185 182 177 182 184 195 197 199 199 204 197 225 204 224 211 194 237 213 313 59 125 132 148 134 123 169 170 186 193 234 106 235 235 236 237 233 247 254 228 211 199 193 192 191 195 203 197 188 179 180 186 191 191 189
193 198 195 192 196 197 200 203 203 209 201 230 194 232 212 308 235 218 143 131 141 151 140 124 116 184 174 219 212 121 195 237 226 234 235 224 260 259 219 203 193 191 189 186 186 179 179 177 180 182 185 190 190 191
199 195 207 208 205 208 213 217 219 220 217 234 227 226 210 220 190 213 201 194 170 160 147 127 144 199 221 208 186 216 218 223 233 221 257 269 265 246 218 201 192 186 184 184 178 176 177 180 184 188 190 189 191 191
257 221 210 211 207 208 215 212 215 209 228 224 234 225 215 253 245 187 186 187 176 158 184 171 198 207 96 212 235 208 215 236 223 246 261 260 254 229 200 188 186 186 188 187 186 184 184 186 189 192 195 194 192 193
250 236 224 207 196 191 189 192 226 224 236 222 211 212 209 214 199 202 196 177 163 186 164 207 146 199 213 214 222 220 229 242 254 261 267 257 237 206 194 191 190 191 193 191 191 192 193 194 196 198 197 199 200 199
267 233 221 204 189 181 206 214 221 245 226 214 226 220 211 222 219 212 191 185 182 181 176 166 220 218 223 220 232 228 220 222 240 251 240 232 220 203 193 192 196 198 198 199 200 202 203 204 205 204 204 205 207 207
284 249 221 206 194 200 235 225 207 242 234 214 213 192 196 210 202 199 191 185 184 188 209 214 220 219 212 230 241 246 246 241 244 243 242 228 214 205 200 199 200 200 201 204 206 207 207 207 208 208 210 211 212 213
294 282 235 208 206 220 263 231 224 228 214 196 200 177 208 183 194 186 189 184 191 218 233 229 236 240 242 248 253 252 251 253 260 256 252 233 219 211 207 205 206 207 209 210 212 212 212 214 213 213 214 215 216 218
270 278 275 213 211 222 242 223 223 187 188 191 171 195 201 199 193 192 179 192 230 229 223 233 240 246 250 250 253 256 261 260 257 248 239 235 218 212 213 214 212 214 216 219 220 221 222 220 217 217 219 220 222 224
263 256 228 207 205 218 232 205 190 205 207 184 169 207 221 207 188 164 232 225 242 244 242 245 249 251 254 258 256 255 253 250 247 242 233 229 227 227 227 226 224 225 227 228 227 227 227 225 224 223 223 224 225 228
239 220 220 211 205 176 174 184 194 170 166 203 201 227 195 160 161 201 254 249 247 253 250 250 248 247 249 250 252 253 249 244 239 235 229 224 224 226 228 229 229 231 232 234 232 231 229 228 226 224 224 226 229 232
193 226 203 213 192 141 192 169 183 188 238 176 203 226 178 163 187 227 239 262 257 259 257 254 248 243 243 251 256 252 244 233 231 231 228 226 228 227 227 228 228 229 229 230 229 228 228 229 228 228 229 230 233 236
207 211 189 206 175 185 189 174 194 200 170 180 218 121 150 179 222 246 224 246 257 267 270 264 255 248 246 246 246 248 241 230 226 227 232 229 229 230 233 232 233 233 232 232 231 231 231 231 231 232 235 236 238 241
221 240 210 208 177 164 173 173 155 186 185 202 164 162 160 204 231 245 252 258 273 278 281 282 275 265 263 261 255 247 243 236 228 230 234 231 234 237 240 241 242 246 241 239 237 237 237 236 236 237 240 242 243 245
210 193 195 176 190 202 200 184 190 209 208 159 135 185 189 203 223 228 236 286 311 327 315 298 284 274 265 257 256 252 240 228 225 224 229 233 234 236 238 239 240 239 238 238 237 237 237 239 240 242 244 247 250 250
201 185 166 167 179 209 222 209 218 217 182 170 190 214 226 230 253 262 274 293 304 310 297 301 290 283 271 256 244 233 227 220 215 214 220 229 232 236 236 236 235 235 233 233 235 238 238 239 240 243 247 249 251 251
192 178 172 162 187 220 221 207 239 257 222 220 248 279 270 265 281 296 300 294 294 301 294 293 289 286 279 260 241 229 224 222 222 228 234 238 243 251 248 244 242 242 240 237 236 237 238 238 239 239 240 242 244 247
164 176 198 207 236 243 250 266 269 267 262 252 245 251 261 289 288 294 297 297 293 279 281 298 293 280 277 270 256 247 246 245 244 242 242 244 248 253 255 251 242 239 238 237 237 236 237 239 240 243 244 246 248 250
195 201 201 235 249 269 284 237 243 248 246 247 258 245 283 277 273 324 355 350 349 326 303 289 296 287 269 260 258 255 255 258 262 259 251 252 252 254 253 250 245 238 231 228 228 231 234 238 242 246 251 253 255 256
216 206 226 273 274 254 231 225 227 260 231 254 348 343 324 312 296 355 350 349 346 339 331 315 303 298 277 258 256 252 257 262 263 260 257 254 252 248 245 243 239 234 229 226 226 229 233 238 245 250 253 257 257 258